Time,TemperatureF,DewpointF,PressureIn,WindDirection,WindDirectionDegrees,WindSpeedMPH,WindSpeedGustMPH,Humidity,HourlyPrecipIn,Conditions,Clouds,dailyrainin,SolarRadiationWatts/m^2,SoftwareType,DateUTC
2013-01-26 00:03:00,46.0,44.0,-100.00,SSW,201,0.0,0.0,93,0.00,,,0.00,0.000000,,2013-01-26 05:03:00,
2013-01-26 00:23:00,45.0,43.0,-100.00,SSE,156,0.0,0.0,93,0.00,,,0.00,0.000000,,2013-01-26 05:23:00,
2013-01-26 00:33:00,45.0,43.0,-100.00,SSE,156,0.0,0.0,93,0.00,,,0.00,0.000000,,2013-01-26 05:33:00,
2013-01-26 00:42:00,45.0,43.0,-100.00,SSE,156,0.0,0.0,93,0.00,,,0.00,0.000000,,2013-01-26 05:42:00,
2013-01-26 00:53:00,45.0,43.0,-100.00,SSE,156,0.0,0.0,93,0.00,,,0.00,0.000000,,2013-01-26 05:53:00,
2013-01-26 01:03:00,45.0,43.0,-100.00,SSE,156,0.0,0.0,93,0.00,,,0.00,0.000000,,2013-01-26 06:03:00,
2013-01-26 01:32:00,44.0,42.0,-100.00,WSW,251,1.0,2.0,93,0.00,,,0.00,0.000000,,2013-01-26 06:32:00,
2013-01-26 01:42:00,44.0,42.0,-100.00,WSW,251,1.0,2.0,93,0.00,,,0.00,0.000000,,2013-01-26 06:42:00,
2013-01-26 01:52:00,44.0,42.0,-100.00,WSW,251,1.0,2.0,93,0.00,,,0.00,0.000000,,2013-01-26 06:52:00,
2013-01-26 02:02:00,44.0,42.0,-100.00,WSW,251,1.0,2.0,93,0.00,,,0.00,0.000000,,2013-01-26 07:02:00,
2013-01-26 02:33:00,46.0,44.0,-100.00,SW,233,1.0,4.0,94,0.00,,,0.00,0.000000,,2013-01-26 07:33:00,
2013-01-26 02:42:00,46.0,44.0,-100.00,SW,233,1.0,4.0,94,0.00,,,0.00,0.000000,,2013-01-26 07:42:00,
2013-01-26 02:52:00,46.0,44.0,-100.00,SW,233,1.0,4.0,94,0.00,,,0.00,0.000000,,2013-01-26 07:52:00,
2013-01-26 03:02:00,46.0,44.0,-100.00,SW,233,1.0,4.0,94,0.00,,,0.00,0.000000,,2013-01-26 08:02:00,
2013-01-26 03:32:00,45.0,43.0,-100.00,SSE,150,1.0,3.0,94,0.00,,,0.00,0.000000,,2013-01-26 08:32:00,
2013-01-26 03:42:00,45.0,43.0,-100.00,SSE,150,1.0,3.0,94,0.00,,,0.00,0.000000,,2013-01-26 08:42:00,
2013-01-26 03:54:00,45.0,43.0,-100.00,SSE,150,1.0,3.0,94,0.00,,,0.00,0.000000,,2013-01-26 08:54:00,
2013-01-26 04:02:00,45.0,43.0,-100.00,SSE,150,1.0,3.0,94,0.00,,,0.00,0.000000,,2013-01-26 09:02:00,
2013-01-26 04:32:00,45.0,43.0,-100.00,East,97,0.0,2.0,94,0.00,,,0.00,0.000000,,2013-01-26 09:32:00,
2013-01-26 04:42:00,45.0,43.0,-100.00,East,97,0.0,2.0,94,0.00,,,0.00,0.000000,,2013-01-26 09:42:00,
2013-01-26 04:52:00,45.0,43.0,-100.00,East,97,0.0,2.0,94,0.00,,,0.00,0.000000,,2013-01-26 09:52:00,
2013-01-26 05:01:00,45.0,43.0,-100.00,East,97,0.0,2.0,94,0.00,,,0.00,0.000000,,2013-01-26 10:01:00,
2013-01-26 05:32:00,45.0,43.0,-100.00,East,89,0.0,0.0,94,0.00,,,0.00,0.000000,,2013-01-26 10:32:00,
2013-01-26 05:43:00,45.0,43.0,-100.00,East,89,0.0,0.0,94,0.00,,,0.00,0.000000,,2013-01-26 10:43:00,
2013-01-26 05:52:00,45.0,43.0,-100.00,East,89,0.0,0.0,94,0.00,,,0.00,0.000000,,2013-01-26 10:52:00,
2013-01-26 06:02:00,45.0,43.0,-100.00,East,89,0.0,0.0,94,0.00,,,0.00,0.000000,,2013-01-26 11:02:00,
2013-01-26 06:32:00,45.0,43.0,-100.00,SE,137,0.0,2.0,94,0.00,,,0.00,0.000000,,2013-01-26 11:32:00,
2013-01-26 06:42:00,45.0,43.0,-100.00,SE,137,0.0,2.0,94,0.00,,,0.00,0.000000,,2013-01-26 11:42:00,
2013-01-26 06:52:00,45.0,43.0,-100.00,SE,137,0.0,2.0,94,0.00,,,0.00,0.000000,,2013-01-26 11:52:00,
2013-01-26 07:02:00,45.0,43.0,-100.00,SE,137,0.0,2.0,94,0.00,,,0.00,0.000000,,2013-01-26 12:02:00,
2013-01-26 07:33:00,45.0,43.0,-100.00,West,265,1.0,2.0,94,0.00,,,0.00,0.000000,,2013-01-26 12:33:00,
2013-01-26 07:42:00,45.0,43.0,-100.00,West,265,1.0,2.0,94,0.00,,,0.00,0.000000,,2013-01-26 12:42:00,
2013-01-26 07:53:00,45.0,43.0,-100.00,West,265,1.0,2.0,94,0.00,,,0.00,0.000000,,2013-01-26 12:53:00,
2013-01-26 08:03:00,45.0,43.0,-100.00,West,265,1.0,2.0,94,0.00,,,0.00,0.000000,,2013-01-26 13:03:00,
2013-01-26 08:33:00,49.0,47.0,-100.00,West,264,2.0,5.0,94,0.00,,,0.00,17.000000,,2013-01-26 13:33:00,
2013-01-26 08:42:00,49.0,47.0,-100.00,West,264,2.0,5.0,94,0.00,,,0.00,17.000000,,2013-01-26 13:42:00,
2013-01-26 08:53:00,49.0,47.0,-100.00,West,264,2.0,5.0,94,0.00,,,0.00,17.000000,,2013-01-26 13:53:00,
2013-01-26 09:03:00,49.0,47.0,-100.00,West,264,2.0,5.0,94,0.00,,,0.00,17.000000,,2013-01-26 14:03:00,
2013-01-26 09:32:00,57.0,55.0,-100.00,West,266,3.0,7.0,92,0.00,,,0.00,117.000000,,2013-01-26 14:32:00,
2013-01-26 09:43:00,57.0,55.0,-100.00,West,266,3.0,7.0,92,0.00,,,0.00,117.000000,,2013-01-26 14:43:00,
2013-01-26 09:53:00,57.0,55.0,-100.00,West,266,3.0,7.0,92,0.00,,,0.00,117.000000,,2013-01-26 14:53:00,
2013-01-26 10:03:00,57.0,55.0,-100.00,West,266,3.0,7.0,92,0.00,,,0.00,117.000000,,2013-01-26 15:03:00,
2013-01-26 10:33:00,64.0,57.0,-100.00,West,279,5.0,10.0,78,0.00,,,0.00,329.000000,,2013-01-26 15:33:00,
2013-01-26 10:43:00,64.0,57.0,-100.00,West,279,5.0,10.0,78,0.00,,,0.00,329.000000,,2013-01-26 15:43:00,
2013-01-26 10:53:00,64.0,57.0,-100.00,West,279,5.0,10.0,78,0.00,,,0.00,329.000000,,2013-01-26 15:53:00,
2013-01-26 11:02:00,64.0,57.0,-100.00,West,279,5.0,10.0,78,0.00,,,0.00,329.000000,,2013-01-26 16:02:00,
2013-01-26 11:33:00,69.0,57.0,-100.00,WNW,284,6.0,13.0,66,0.00,,,0.00,489.000000,,2013-01-26 16:33:00,
2013-01-26 11:43:00,69.0,57.0,-100.00,WNW,284,6.0,13.0,66,0.00,,,0.00,489.000000,,2013-01-26 16:43:00,
2013-01-26 11:53:00,69.0,57.0,-100.00,WNW,284,6.0,13.0,66,0.00,,,0.00,489.000000,,2013-01-26 16:53:00,
2013-01-26 12:03:00,69.0,57.0,-100.00,WNW,284,6.0,13.0,66,0.00,,,0.00,489.000000,,2013-01-26 17:03:00,
2013-01-26 12:33:00,72.0,58.0,-100.00,WNW,296,7.0,11.0,62,0.00,,,0.00,566.000000,,2013-01-26 17:33:00,
2013-01-26 12:42:00,72.0,58.0,-100.00,WNW,296,7.0,11.0,62,0.00,,,0.00,566.000000,,2013-01-26 17:42:00,
2013-01-26 12:53:00,72.0,58.0,-100.00,WNW,296,7.0,11.0,62,0.00,,,0.00,566.000000,,2013-01-26 17:53:00,
2013-01-26 13:03:00,72.0,58.0,-100.00,WNW,296,7.0,11.0,62,0.00,,,0.00,566.000000,,2013-01-26 18:03:00,
2013-01-26 13:33:00,74.0,57.0,-100.00,WNW,292,7.0,14.0,56,0.00,,,0.00,681.000000,,2013-01-26 18:33:00,
2013-01-26 13:42:00,74.0,57.0,-100.00,WNW,292,7.0,14.0,56,0.00,,,0.00,681.000000,,2013-01-26 18:42:00,
2013-01-26 13:53:00,74.0,57.0,-100.00,WNW,292,7.0,14.0,56,0.00,,,0.00,681.000000,,2013-01-26 18:53:00,
2013-01-26 14:03:00,74.0,57.0,-100.00,WNW,292,7.0,14.0,56,0.00,,,0.00,681.000000,,2013-01-26 19:03:00,
2013-01-26 14:23:00,74.0,57.0,-100.00,West,262,5.0,14.0,55,0.00,,,0.00,522.000000,,2013-01-26 19:23:00,
2013-01-26 14:33:00,74.0,57.0,-100.00,West,262,5.0,14.0,55,0.00,,,0.00,522.000000,,2013-01-26 19:33:00,
2013-01-26 14:43:00,74.0,57.0,-100.00,West,262,5.0,14.0,55,0.00,,,0.00,522.000000,,2013-01-26 19:43:00,
2013-01-26 14:53:00,74.0,57.0,-100.00,West,262,5.0,14.0,55,0.00,,,0.00,522.000000,,2013-01-26 19:53:00,
2013-01-26 15:02:00,74.0,57.0,-100.00,West,262,5.0,14.0,55,0.00,,,0.00,522.000000,,2013-01-26 20:02:00,
2013-01-26 15:32:00,73.0,56.0,-100.00,WNW,284,5.0,10.0,56,0.00,,,0.00,348.000000,,2013-01-26 20:32:00,
2013-01-26 15:42:00,73.0,56.0,-100.00,WNW,284,5.0,10.0,56,0.00,,,0.00,348.000000,,2013-01-26 20:42:00,
2013-01-26 15:52:00,73.0,56.0,-100.00,WNW,284,5.0,10.0,56,0.00,,,0.00,348.000000,,2013-01-26 20:52:00,
2013-01-26 16:03:00,73.0,56.0,-100.00,WNW,284,5.0,10.0,56,0.00,,,0.00,348.000000,,2013-01-26 21:03:00,
2013-01-26 16:23:00,72.0,57.0,-100.00,NW,310,3.0,9.0,59,0.00,,,0.00,140.000000,,2013-01-26 21:23:00,
2013-01-26 16:32:00,72.0,57.0,-100.00,NW,310,3.0,9.0,59,0.00,,,0.00,140.000000,,2013-01-26 21:32:00,
2013-01-26 16:43:00,72.0,57.0,-100.00,NW,310,3.0,9.0,59,0.00,,,0.00,140.000000,,2013-01-26 21:43:00,
2013-01-26 16:52:00,72.0,57.0,-100.00,NW,310,3.0,9.0,59,0.00,,,0.00,140.000000,,2013-01-26 21:52:00,
2013-01-26 17:02:00,72.0,57.0,-100.00,NW,310,3.0,9.0,59,0.00,,,0.00,140.000000,,2013-01-26 22:02:00,
2013-01-26 17:32:00,70.0,57.0,-100.00,NW,325,3.0,7.0,64,0.00,,,0.00,54.000000,,2013-01-26 22:32:00,
2013-01-26 17:42:00,70.0,57.0,-100.00,NW,325,3.0,7.0,64,0.00,,,0.00,54.000000,,2013-01-26 22:42:00,
2013-01-26 17:52:00,70.0,57.0,-100.00,NW,325,3.0,7.0,64,0.00,,,0.00,54.000000,,2013-01-26 22:52:00,
2013-01-26 18:02:00,70.0,57.0,-100.00,NW,325,3.0,7.0,64,0.00,,,0.00,54.000000,,2013-01-26 23:02:00,
2013-01-26 18:22:00,66.0,56.0,-100.00,NW,306,0.0,5.0,71,0.00,,,-99.99,23.000000,,2013-01-26 23:22:00,
2013-01-26 18:33:00,66.0,56.0,-100.00,NW,306,0.0,5.0,71,0.00,,,-99.99,23.000000,,2013-01-26 23:33:00,
2013-01-26 18:42:00,66.0,56.0,-100.00,NW,306,0.0,5.0,71,0.00,,,-99.99,23.000000,,2013-01-26 23:42:00,
2013-01-26 18:52:00,66.0,56.0,-100.00,NW,306,0.0,5.0,71,0.00,,,-99.99,23.000000,,2013-01-26 23:52:00,
2013-01-26 19:02:00,66.0,56.0,-100.00,NW,306,0.0,5.0,71,0.00,,,-99.99,23.000000,,2013-01-27 00:02:00,
2013-01-26 19:32:00,63.0,57.0,-100.00,East,94,3.0,4.0,82,0.00,,,0.00,0.000000,,2013-01-27 00:32:00,
2013-01-26 19:42:00,63.0,57.0,-100.00,East,94,3.0,4.0,82,0.00,,,0.00,0.000000,,2013-01-27 00:42:00,
2013-01-26 19:52:00,63.0,57.0,-100.00,East,94,3.0,4.0,82,0.00,,,0.00,0.000000,,2013-01-27 00:52:00,
2013-01-26 20:01:00,63.0,57.0,-100.00,East,94,3.0,4.0,82,0.00,,,0.00,0.000000,,2013-01-27 01:01:00,
2013-01-26 20:32:00,62.0,55.0,-100.00,SSE,168,0.0,5.0,79,0.00,,,0.00,0.000000,,2013-01-27 01:32:00,
2013-01-26 20:42:00,62.0,55.0,-100.00,SSE,168,0.0,5.0,79,0.00,,,0.00,0.000000,,2013-01-27 01:42:00,
2013-01-26 20:52:00,62.0,55.0,-100.00,SSE,168,0.0,5.0,79,0.00,,,0.00,0.000000,,2013-01-27 01:52:00,
2013-01-26 21:01:00,62.0,55.0,-100.00,SSE,168,0.0,5.0,79,0.00,,,0.00,0.000000,,2013-01-27 02:01:00,
2013-01-26 21:22:00,61.0,54.0,-100.00,East,85,5.0,9.0,79,0.00,,,0.00,0.000000,,2013-01-27 02:22:00,
2013-01-26 21:32:00,61.0,54.0,-100.00,East,85,5.0,9.0,79,0.00,,,0.00,0.000000,,2013-01-27 02:32:00,
2013-01-26 21:42:00,61.0,54.0,-100.00,East,85,5.0,9.0,79,0.00,,,0.00,0.000000,,2013-01-27 02:42:00,
2013-01-26 21:52:00,61.0,54.0,-100.00,East,85,5.0,9.0,79,0.00,,,0.00,0.000000,,2013-01-27 02:52:00,
2013-01-26 22:02:00,61.0,54.0,-100.00,East,85,5.0,9.0,79,0.00,,,0.00,0.000000,,2013-01-27 03:02:00,
2013-01-26 22:32:00,58.0,53.0,-100.00,East,79,2.0,10.0,84,0.00,,,0.00,0.000000,,2013-01-27 03:32:00,
2013-01-26 22:42:00,58.0,53.0,-100.00,East,79,2.0,10.0,84,0.00,,,0.00,0.000000,,2013-01-27 03:42:00,
2013-01-26 22:52:00,58.0,53.0,-100.00,East,79,2.0,10.0,84,0.00,,,0.00,0.000000,,2013-01-27 03:52:00,
2013-01-26 23:02:00,58.0,53.0,-100.00,East,79,2.0,10.0,84,0.00,,,0.00,0.000000,,2013-01-27 04:02:00,
2013-01-26 23:32:00,55.0,52.0,-100.00,ENE,66,1.0,5.0,89,0.00,,,0.00,0.000000,,2013-01-27 04:32:00,
2013-01-26 23:42:00,55.0,52.0,-100.00,ENE,66,1.0,5.0,89,0.00,,,0.00,0.000000,,2013-01-27 04:42:00,
2013-01-26 23:52:00,55.0,52.0,-100.00,ENE,66,1.0,5.0,89,0.00,,,0.00,0.000000,,2013-01-27 04:52:00,